[[{"header":{"parameterUnit":"m.s-1","parameterCategory":1,"la1":30.2991,"la2":30.254,"lo1":-89.0895,"lo2":-89.0444,"dy":0.0017,"dx":0.0017,"nx":28,"ny":28,"refTime":"2024-08-03T21:00:00:Z","depth":0,"parameterNumber":2,"parameterNumberName":"U-component_of_WINDS"},"data":[0,0,0,0,0,0,0,0,0,0,0,0,0,0,0,0,0,0,0,0,0,0,0,0,0,0,0,0,0,0,0,0,0,0,0,0,0,0,0,0,0,0,0,0,0,0,0,0,0,0,0,0,0,0,0,0,0,0,-2.6975,-2.6976,0,-2.704,-2.7041,-2.7041,-2.6978,-2.6975,-2.6973,-2.697,-2.7033,-2.7037,-2.7041,0,0,0,0,0,0,0,0,0,0,0,0,0,-2.6792,-2.6796,-2.6975,-2.6976,-2.6977,-2.704,-2.7041,-2.7042,-2.6978,-2.6975,-2.6972,-2.6969,-2.7032,-2.7037,-2.7042,0,0,0,0,0,0,0,0,0,0,0,0,0,-2.6866,-2.6797,-2.6975,-2.6953,-2.6951,-2.704,-2.7041,-2.7042,-2.6979,-2.6975,-2.6971,-2.6968,-2.7031,-2.7036,-2.7042,-2.7155,0,0,-2.7061,-2.7063,0,0,0,0,0,0,0,0,-2.6862,-2.6873,-2.6955,-2.6954,-2.6953,-2.6997,-2.6999,-2.708,-2.698,-2.6968,-2.697,-2.6966,-2.7024,-2.703,-2.7051,-2.7158,-2.716,-2.7061,-2.7065,-2.7068,-2.7069,0,0,0,0,0,0,0,-2.6857,-2.6869,-2.7001,-2.6956,-2.6955,-2.6938,-2.6945,-2.7014,-2.7016,-2.6969,-2.6965,-2.6973,-2.7023,-2.7045,-2.7052,-2.7161,-2.7061,-2.7066,-2.707,-2.7073,-2.7362,-2.7366,0,0,0,0,0,0,-2.6855,-2.6866,-2.6998,-2.7002,-2.6897,-2.6945,-2.6952,-2.6987,-2.7015,-2.7016,-2.6976,-2.697,-2.7037,-2.7045,-2.7054,-2.7186,-2.7067,-2.7073,-2.7077,-2.7358,-2.7363,-2.7367,0,0,0,0,0,0,-2.6851,-2.6867,-2.6996,-2.6933,-2.6948,-2.6952,-2.6992,-2.699,-2.7012,-2.7021,-2.7021,-2.6999,-2.7034,-2.7045,-2.713,-2.7187,-2.7076,-2.7081,-2.7353,-2.7359,-2.7365,-2.7452,0,0,0,0,0,0,-2.6846,-2.6866,-2.691,-2.6934,-2.6952,-2.7073,-2.6995,-2.6994,-2.7023,-2.7015,-2.7042,-2.7043,-2.7032,-2.7121,-2.7136,-2.7193,-2.7086,-2.7348,-2.7356,-2.7363,-2.7444,-2.746,-2.7474,0,0,0,0,0,-2.684,-2.6931,-2.6912,-2.6929,-2.7007,-2.7076,-2.7086,-2.7072,-2.7028,-2.7071,-2.7077,-2.7042,-2.7179,-2.713,-2.7146,-2.7207,-2.7344,-2.7353,-2.7362,-2.7437,-2.7457,-2.7474,0,0,0,0,0,0,-2.6912,-2.6934,-2.6913,-2.7016,-2.7045,-2.7065,-2.7119,-2.7094,-2.7134,-2.7125,-2.7106,-2.7112,-2.7202,-2.7213,-2.7158,-2.7316,-2.7254,-2.7267,-2.7306,-2.7325,-2.734,-2.7334,-2.7091,0,0,0,0,0,-2.6941,-2.6996,-2.7012,-2.7101,-2.7117,-2.7116,-2.7145,-2.7132,-2.7161,-2.7172,-2.7184,-2.7212,-2.7261,-2.7293,-2.7339,-2.7446,-2.7449,-2.7495,-2.751,-2.7522,-2.7533,-2.7589,-2.7609,-2.7397,-2.7397,-2.7397,0,0,-2.6999,-2.7018,-2.7054,-2.7116,-2.7137,-2.7193,-2.7126,-2.7189,-2.7231,-2.7181,-2.7262,-2.7272,-2.7301,-2.7397,-2.744,-2.7409,-2.7593,-2.7534,-2.7544,-2.7548,-2.76,-2.762,-2.7638,-2.7403,-2.7402,-2.7401,0,0,-2.7134,-2.7155,-2.7231,-2.7253,-2.7285,-2.7284,-2.7302,-2.7327,-2.7332,-2.7412,-2.7376,-2.7425,-2.751,-2.7532,-2.7555,-2.7698,-2.7667,-2.7713,-2.7792,-2.7846,-2.7863,-2.7878,-2.7927,-2.7946,-2.7724,-2.7724,-2.7725,0,-2.7202,-2.7288,-2.7273,-2.7338,-2.7366,-2.7325,-2.7401,-2.7423,-2.7468,-2.7487,-2.7453,-2.7558,-2.7575,-2.7675,-2.771,-2.773,-2.7749,-2.771,-2.7862,-2.7877,-2.789,-2.7937,-2.7956,-2.773,-2.7729,-2.7729,-2.7728,0,-2.7369,-2.7429,-2.7486,-2.7532,-2.7566,-2.7636,-2.763,-2.7667,-2.7651,-2.7653,-2.7735,-2.7754,-2.7802,-2.7825,-2.781,-2.7922,-2.7902,-2.7865,-2.7802,-2.7916,-2.796,-2.7978,-2.7737,-2.7735,-2.7734,-2.7733,0,0,-2.7551,-2.7588,-2.7609,-2.7629,-2.7662,-2.7707,-2.7775,-2.7823,-2.7854,-2.7886,-2.7942,-2.8015,-2.798,-2.8006,-2.7993,-2.8041,-2.8151,-2.7998,-2.7998,-2.8024,-2.8275,-2.8302,-2.8323,-2.8132,-2.8135,-2.8138,-2.8272,0,-2.7686,-2.7806,-2.7794,-2.7907,-2.7961,-2.7922,-2.7981,-2.8007,-2.8011,-2.8056,-2.8059,-2.8111,-2.8063,-2.8077,-2.8123,-2.8128,-2.8201,-2.8119,-2.8181,-2.8184,-2.8174,-2.8346,-2.8375,-2.85,-2.8289,-2.8292,-2.8294,0,-2.786,-2.79,-2.8018,-2.8042,-2.8064,-2.8117,-2.816,-2.8204,-2.8232,-2.8231,-2.826,-2.8238,-2.8305,-2.8241,-2.8332,-2.8276,-2.8301,-2.8307,-2.8312,-2.8316,-2.8245,-2.8354,-2.854,-2.8559,-2.8321,-2.8319,-2.8317,0,-2.798,-2.8062,-2.8144,-2.8162,-2.8192,-2.823,-2.8244,-2.8268,-2.8298,-2.8335,-2.8353,-2.8397,-2.8421,-2.8455,-2.8445,-2.84,-2.8537,-2.8474,-2.8537,-2.8537,-2.8567,-2.8565,-2.8759,-2.8585,-2.8585,-2.8585,-2.8584,0,-2.8131,-2.8205,-2.8198,-2.8248,-2.8328,-2.8314,-2.8394,-2.8402,-2.8424,-2.8474,-2.8443,-2.849,-2.8475,-2.8521,-2.8514,-2.8589,-2.86,-2.86,-2.8597,-2.8602,-2.8602,-2.8617,-2.8608,-2.859,-2.8589,-2.8588,-2.8587,0,-2.8278,-2.8276,-2.8362,-2.8384,-2.8391,-2.8449,-2.8467,-2.8513,-2.8514,-2.8578,-2.8591,-2.8593,-2.8645,-2.8639,-2.8698,-2.8692,-2.8785,-2.8773,-2.8777,-2.8773,-2.8836,-2.883,-2.9046,-2.9073,-2.8883,-2.8885,-2.8887,0,-2.8374,-2.843,-2.8457,-2.8489,-2.8506,-2.8558,-2.8588,-2.8575,-2.8607,-2.8643,-2.8684,-2.8734,-2.8773,-2.8858,-2.8864,-2.8908,-2.8894,-2.8967,-2.8901,-2.8904,-2.8894,-2.889,-2.8895,-2.898,-2.8982,-2.8984,-2.8985,0,-2.8544,-2.8541,-2.8586,-2.8631,-2.8668,-2.8702,-2.8734,-2.8761,-2.8751,-2.8789,-2.8842,-2.8873,-2.8933,-2.8982,-2.9023,-2.9036,-2.9009,-2.9006,-2.9023,-2.9028,-2.9028,-2.9027,-2.8811,-2.9001,-2.8999,-2.8998,-2.8997,-2.8997,-2.8667,-2.8715,-2.8742,-2.8793,-2.8815,-2.8845,-2.8889,-2.8896,-2.8941,-2.8989,-2.8979,-2.9039,-2.9064,-2.9117,-2.9134,-2.918,-2.9153,-2.9178,-2.9184,-2.919,-2.9197,-2.9022,-2.9188,-2.9187,-2.9187,-2.9186,-2.9186,0,-2.8835,-2.885,-2.8897,-2.8942,-2.8982,-2.8955,-2.8988,-2.9022,-2.9076,-2.9102,-2.9142,-2.9203,-2.925,-2.926,-2.9304,-2.9339,-2.9328,-2.9351,-2.9348,-2.9351,-2.9219,-2.9199,-2.936,-2.936,-2.9359,-2.9359,-2.9359,-2.9359,-2.8926,-2.9005,-2.9004,-2.9093,-2.9107,-2.9167,-2.9188,-2.9215,-2.9236,-2.9305,-2.9345,-2.9351,-2.937,-2.9416,-2.9458,-2.9459,-2.9477,-2.9505,-2.9501,-2.9377,-2.936,-2.9343,-2.9325,-2.9509,-2.9509,-2.9629,-2.963,-2.9631]},{"header":{"parameterUnit":"m.s-1","parameterCategory":1,"la1":30.2991,"la2":30.254,"lo1":-89.0895,"lo2":-89.0444,"dy":0.0017,"dx":0.0017,"nx":28,"ny":28,"refTime":"2024-08-03T21:00:00:Z","depth":0,"parameterNumber":3,"parameterNumberName":"V-component_of_WINDS"},"data":[0,0,0,0,0,0,0,0,0,0,0,0,0,0,0,0,0,0,0,0,0,0,0,0,0,0,0,0,0,0,0,0,0,0,0,0,0,0,0,0,0,0,0,0,0,0,0,0,0,0,0,0,0,0,0,0,0,0,-1.2041,-1.204,0,-1.2022,-1.2021,-1.2021,-1.1997,-1.1997,-1.1997,-1.1996,-1.1978,-1.1978,-1.1978,0,0,0,0,0,0,0,0,0,0,0,0,0,-1.2057,-1.2056,-1.2041,-1.204,-1.204,-1.2022,-1.2021,-1.2021,-1.1997,-1.1997,-1.1997,-1.1996,-1.1978,-1.1978,-1.1978,0,0,0,0,0,0,0,0,0,0,0,0,0,-1.2045,-1.2056,-1.2041,-1.2026,-1.2025,-1.2022,-1.2021,-1.2021,-1.1998,-1.1997,-1.1996,-1.1996,-1.1978,-1.1978,-1.1978,-1.1988,0,0,-1.1977,-1.1977,0,0,0,0,0,0,0,0,-1.2046,-1.2044,-1.2028,-1.2027,-1.2025,-1.2011,-1.202,-1.201,-1.1998,-1.2008,-1.1996,-1.1996,-1.199,-1.1988,-1.1986,-1.1987,-1.1986,-1.1977,-1.1977,-1.1977,-1.1977,0,0,0,0,0,0,0,-1.2046,-1.2045,-1.2033,-1.2028,-1.2026,-1.2021,-1.2018,-1.2018,-1.2002,-1.2007,-1.2005,-1.2003,-1.1989,-1.1986,-1.1985,-1.1986,-1.1977,-1.1977,-1.1977,-1.1977,-1.1994,-1.1995,0,0,0,0,0,0,-1.2049,-1.2046,-1.2034,-1.2033,-1.2034,-1.2021,-1.2018,-1.2016,-1.2002,-1.1999,-1.2004,-1.2002,-1.1987,-1.1986,-1.1985,-1.1996,-1.1977,-1.1977,-1.1976,-1.1993,-1.1994,-1.1995,0,0,0,0,0,0,-1.205,-1.2049,-1.2035,-1.2039,-1.2036,-1.2021,-1.2019,-1.2016,-1.2014,-1.2,-1.1997,-1.2004,-1.1986,-1.1985,-1.1987,-1.1995,-1.1976,-1.1976,-1.1993,-1.1994,-1.1994,-1.2018,0,0,0,0,0,0,-1.205,-1.2049,-1.2052,-1.2039,-1.2036,-1.2037,-1.202,-1.2016,-1.2014,-1.2011,-1.1999,-1.1997,-1.1986,-1.1988,-1.1987,-1.1994,-1.1976,-1.1992,-1.1993,-1.1994,-1.2016,-1.2019,-1.2022,0,0,0,0,0,-1.2051,-1.206,-1.2053,-1.2051,-1.2041,-1.2038,-1.2036,-1.2023,-1.2014,-1.2018,-1.2009,-1.1997,-1.1994,-1.1988,-1.1987,-1.1994,-1.1991,-1.1993,-1.1994,-1.2015,-1.2018,-1.2022,0,0,0,0,0,0,-1.2075,-1.2058,-1.205,-1.2055,-1.2048,-1.2034,-1.2038,-1.2027,-1.2023,-1.2021,-1.2005,-1.2003,-1.2007,-1.2001,-1.1994,-1.2003,-1.1991,-1.1992,-1.2007,-1.201,-1.2013,-1.2015,-1.1976,0,0,0,0,0,-1.2081,-1.208,-1.2065,-1.2071,-1.2068,-1.2053,-1.2052,-1.2042,-1.2034,-1.2031,-1.2022,-1.2015,-1.2013,-1.2011,-1.2008,-1.2015,-1.2012,-1.202,-1.2022,-1.2025,-1.2026,-1.2029,-1.2032,-1.1999,-1.1999,-1.1999,0,0,-1.2093,-1.2084,-1.2084,-1.2075,-1.2069,-1.2068,-1.2051,-1.2051,-1.205,-1.2031,-1.2033,-1.2026,-1.2017,-1.2022,-1.2023,-1.2017,-1.2034,-1.2026,-1.2028,-1.2028,-1.2031,-1.2034,-1.2037,-1.2,-1.2,-1.2,0,0,-1.2115,-1.2108,-1.2111,-1.2105,-1.2095,-1.2086,-1.2087,-1.2074,-1.2068,-1.2069,-1.2055,-1.2054,-1.205,-1.2044,-1.2041,-1.206,-1.2049,-1.2059,-1.2074,-1.2077,-1.208,-1.2082,-1.2089,-1.2091,-1.2061,-1.2061,-1.2061,0,-1.2131,-1.2129,-1.2115,-1.2115,-1.2112,-1.2094,-1.2098,-1.2093,-1.2083,-1.2081,-1.2074,-1.2068,-1.2061,-1.2063,-1.2068,-1.2066,-1.2066,-1.2061,-1.2081,-1.2083,-1.2085,-1.2091,-1.2093,-1.2062,-1.2062,-1.2062,-1.2062,0,-1.215,-1.2149,-1.2153,-1.2143,-1.214,-1.2142,-1.2128,-1.2127,-1.2118,-1.2109,-1.211,-1.2101,-1.2095,-1.2095,-1.2086,-1.2097,-1.2093,-1.2084,-1.2071,-1.2089,-1.2095,-1.2097,-1.2064,-1.2063,-1.2063,-1.2063,0,0,-1.2186,-1.2168,-1.217,-1.2165,-1.2153,-1.2152,-1.2153,-1.2147,-1.2147,-1.214,-1.2141,-1.2138,-1.2128,-1.2125,-1.2115,-1.2118,-1.2133,-1.2108,-1.2107,-1.2113,-1.2144,-1.2151,-1.2154,-1.2126,-1.2126,-1.2127,-1.2144,0,-1.2206,-1.2207,-1.2193,-1.2198,-1.2197,-1.218,-1.2181,-1.2174,-1.2166,-1.2164,-1.2155,-1.2152,-1.2141,-1.2138,-1.214,-1.2131,-1.2139,-1.2129,-1.2127,-1.2127,-1.2129,-1.2157,-1.2164,-1.2182,-1.2147,-1.2147,-1.2147,0,-1.2228,-1.2222,-1.2227,-1.2214,-1.2213,-1.2215,-1.2208,-1.2206,-1.2197,-1.2191,-1.2187,-1.2175,-1.2176,-1.2164,-1.2165,-1.2158,-1.2156,-1.2152,-1.2152,-1.2151,-1.2138,-1.2157,-1.2187,-1.219,-1.215,-1.215,-1.215,0,-1.2254,-1.2248,-1.2249,-1.2246,-1.2231,-1.2232,-1.2226,-1.2217,-1.2214,-1.2209,-1.2207,-1.2201,-1.2199,-1.2195,-1.2182,-1.2175,-1.2184,-1.2171,-1.2179,-1.218,-1.2182,-1.2182,-1.2212,-1.2181,-1.2181,-1.2181,-1.2181,0,-1.2277,-1.228,-1.2261,-1.2262,-1.2265,-1.225,-1.2254,-1.2246,-1.2238,-1.2237,-1.2223,-1.2222,-1.2206,-1.2204,-1.2194,-1.2196,-1.2195,-1.219,-1.2187,-1.2191,-1.2192,-1.219,-1.2188,-1.2182,-1.2181,-1.2181,-1.2181,0,-1.2306,-1.2293,-1.2294,-1.228,-1.2276,-1.228,-1.2267,-1.2268,-1.2259,-1.2258,-1.2257,-1.2243,-1.2239,-1.2227,-1.222,-1.2214,-1.2219,-1.2214,-1.2222,-1.222,-1.2228,-1.2228,-1.2258,-1.2262,-1.2229,-1.2229,-1.2229,0,-1.2322,-1.2324,-1.231,-1.2308,-1.2303,-1.23,-1.2297,-1.2282,-1.228,-1.227,-1.2272,-1.2267,-1.2263,-1.2258,-1.2248,-1.2243,-1.2237,-1.2248,-1.2237,-1.224,-1.2237,-1.2237,-1.2237,-1.2251,-1.2251,-1.2252,-1.2252,0,-1.235,-1.2344,-1.234,-1.2334,-1.233,-1.2325,-1.2318,-1.2318,-1.2301,-1.2299,-1.2296,-1.2292,-1.2286,-1.2282,-1.2275,-1.2269,-1.2258,-1.2256,-1.2257,-1.2261,-1.2266,-1.2263,-1.2229,-1.2255,-1.2255,-1.2255,-1.2255,-1.2254,-1.2373,-1.2374,-1.2364,-1.236,-1.2354,-1.2348,-1.2348,-1.2338,-1.2335,-1.2328,-1.2319,-1.2317,-1.2308,-1.2298,-1.2293,-1.229,-1.2284,-1.2287,-1.2287,-1.2288,-1.229,-1.2266,-1.2289,-1.2289,-1.2289,-1.2289,-1.2289,0,-1.2401,-1.2393,-1.239,-1.2381,-1.2378,-1.2368,-1.236,-1.2358,-1.2356,-1.2348,-1.2344,-1.234,-1.2336,-1.2324,-1.2319,-1.2319,-1.2314,-1.2319,-1.2318,-1.2317,-1.2296,-1.2295,-1.2323,-1.2323,-1.2323,-1.2323,-1.2323,-1.2323,-1.2415,-1.2416,-1.2408,-1.2406,-1.2398,-1.2395,-1.2392,-1.2387,-1.238,-1.2376,-1.2372,-1.2365,-1.2356,-1.235,-1.2345,-1.2342,-1.2341,-1.2347,-1.2342,-1.2322,-1.2319,-1.2316,-1.2315,-1.2346,-1.2346,-1.2363,-1.2364,-1.2364]}]]